Wind_Speed
10 10 10 10 10 9 9 8 7 7 7 7 7 7 7 6 6 5 5 5 4 4 3 3 3 2 2 2 2 2 3 3 3 4 4 5 5 6 6 6 7 8 8
10 10 9 9 9 9 9 8 7 7 7 7 7 7 7 6 6 5 5 4 4 4 3 2 2 2 1 2 2 2 3 3 3 3 4 5 5 6 6 7 8 8 9
8 9 9 8 8 8 8 7 7 7 7 6 7 7 7 7 7 6 5 5 4 4 3 2 1 1 1 2 3 3 2 2 3 3 4 4 5 6 7 8 9 10 10
8 8 8 8 7 7 7 7 7 6 6 6 6 6 7 7 6 6 6 5 5 4 4 3 3 2 1 1 1 2 3 4 5 5 6 6 6 7 8 9 9 10 11
7 7 7 7 6 6 6 6 5 6 6 6 6 5 6 6 6 6 5 5 5 5 4 4 3 3 2 1 2 2 3 4 5 5 6 7 8 9 9 10 10 11 11
7 6 6 6 6 5 5 5 4 5 5 5 5 5 4 5 5 5 5 4 4 4 4 4 4 4 3 2 3 4 4 5 5 6 6 7 8 8 9 10 11 11 12
6 6 6 6 5 4 4 4 3 3 4 4 4 4 3 3 3 4 4 3 3 3 3 3 3 4 4 4 5 5 5 5 5 6 7 8 9 9 11 11 12 13 13
7 7 6 6 5 4 3 3 2 2 3 3 3 2 3 3 2 2 2 2 3 3 2 3 3 4 4 5 5 6 6 6 6 7 8 9 10 11 11 12 13 13 14
8 8 7 6 6 5 4 4 3 3 3 4 3 2 3 3 3 3 2 2 3 3 3 3 4 4 5 6 7 7 7 7 7 8 9 10 11 11 12 12 13 14 15
9 9 8 8 7 6 6 5 4 4 4 4 4 4 4 4 4 4 4 4 5 5 5 5 6 7 8 8 9 9 9 9 9 10 10 11 12 13 13 14 15 16 16
10 10 9 9 9 8 7 7 7 7 6 6 5 6 5 5 5 5 5 6 7 7 7 8 9 10 10 11 11 11 10 10 10 11 12 13 14 15 15 16 17 17 18
12 11 11 11 11 10 9 9 9 9 8 8 7 7 7 7 7 7 7 9 9 10 10 10 10 11 12 12 13 12 12 13 13 13 14 15 15 16 17 17 18 18 19
13 12 12 12 12 12 11 11 11 11 11 10 10 10 9 9 10 10 10 11 12 12 12 12 12 12 13 14 14 14 14 14 14 15 16 16 17 18 19 19 19 20 21
15 15 14 14 13 13 13 12 13 12 12 12 12 12 12 12 13 13 13 14 14 14 14 14 14 15 15 15 15 15 15 15 16 16 17 18 18 19 20 20 21 22 23
16 17 16 15 14 14 14 14 14 15 15 15 15 15 14 14 15 15 16 16 16 16 15 16 16 17 17 17 17 17 17 17 17 18 18 18 19 20 21 22 23 24 25
18 17 17 17 16 16 17 17 17 17 18 17 17 18 17 18 18 18 18 18 18 17 16 16 17 18 19 18 18 18 18 19 18 19 20 20 21 22 23 24 25 25 25
19 19 19 19 19 19 19 19 20 20 21 20 20 21 20 21 21 21 21 20 20 20 18 18 18 19 20 20 20 20 20 20 20 21 22 23 23 23 24 25 26 26 26
21 21 21 21 21 22 22 22 23 23 23 24 24 24 24 24 24 24 24 23 23 22 20 20 21 21 22 22 23 22 22 22 23 23 24 25 25 26 26 26 27 27 27
24 23 23 23 23 24 24 25 26 26 27 26 26 26 26 27 28 27 26 25 26 25 25 24 24 25 26 26 26 25 25 26 26 26 28 28 28 28 28 28 28 28 29
26 26 26 26 26 26 26 27 27 27 28 28 28 29 29 30 30 29 29 28 28 28 29 29 28 28 28 29 29 28 28 28 29 29 30 30 31 30 29 28 28 29 30
29 29 29 28 28 28 28 29 29 29 29 30 30 31 31 31 31 30 30 30 30 30 31 31 30 30 31 30 30 29 30 30 30 31 31 31 31 31 31 30 30 30 30
32 32 31 31 31 31 31 30 31 31 31 32 32 32 32 33 32 32 32 32 33 33 33 33 33 33 33 32 32 31 31 32 32 31 31 31 31 32 32 32 32 32 32
34 34 34 34 34 33 33 33 33 33 33 33 33 33 33 34 35 34 34 34 34 35 35 35 34 34 33 33 33 33 32 33 33 32 32 32 32 32 33 33 33 33 33
35 35 35 35 35 35 35 35 35 35 35 34 34 35 35 35 36 35 35 35 36 35 35 35 35 35 35 35 35 34 33 33 33 32 32 32 33 33 34 34 34 34 34
36 35 36 36 36 36 36 36 37 37 37 37 37 37 36 36 37 37 37 37 37 37 36 35 36 35 36 36 35 35 34 34 34 34 34 34 34 35 36 35 35 35 35
36 36 36 37 37 37 37 37 38 38 38 38 38 38 37 37 38 38 38 38 38 38 37 37 37 37 37 37 37 37 36 35 35 34 34 35 35 36 36 36 36 35 36
Wind_Direction
36 39 42 46 51 54 56 60 64 68 72 76 81 87 93 98 104 111 122 131 133 134 133 148 165 170 178 196 209 228 229 235 241 242 242 245 246 253 259 262 265 270 272
32 34 38 43 48 53 57 61 65 70 73 77 81 83 87 92 98 103 106 115 124 122 123 137 148 169 204 230 239 253 257 261 258 254 251 257 260 270 266 270 275 276 276
26 28 32 37 44 50 53 57 62 65 69 74 81 83 84 87 90 92 93 93 101 98 99 99 96 142 254 259 263 269 280 285 280 277 271 272 273 276 278 277 279 280 283
18 21 24 29 37 42 49 52 54 57 61 68 78 83 83 83 84 86 87 82 84 83 78 77 66 58 25 332 293 278 277 281 281 286 288 288 285 287 287 287 285 284 284
10 12 13 18 27 33 38 39 46 51 55 59 68 77 78 78 77 78 80 79 75 72 67 62 56 47 40 29 347 314 297 290 284 286 293 296 293 293 292 291 289 288 289
353 358 1 5 15 23 24 24 38 49 54 55 59 66 72 74 72 69 71 73 71 68 60 55 46 36 25 10 347 327 315 302 296 295 299 300 297 297 296 297 294 292 293
332 337 343 350 356 1 10 14 24 37 47 45 47 54 59 62 64 60 59 60 60 55 47 42 31 19 10 360 349 336 326 317 313 306 304 303 301 298 297 295 296 295 295
313 315 321 327 331 334 342 356 360 3 7 7 11 17 18 25 28 34 38 41 36 27 19 14 4 355 351 348 342 334 326 320 312 306 302 303 304 302 300 299 299 297 296
303 301 303 308 307 307 312 322 329 323 331 336 339 332 328 332 338 345 330 340 341 338 341 345 338 334 331 329 324 323 318 315 311 307 304 304 304 303 303 304 303 302 298
292 291 293 295 294 290 291 293 302 304 309 314 316 320 311 306 315 321 324 318 315 318 306 311 316 317 316 316 318 318 315 310 307 305 304 303 302 302 302 304 304 302 301
279 279 281 285 284 284 284 282 288 291 293 297 301 307 302 296 298 306 304 306 308 311 309 305 307 310 311 314 311 311 310 306 304 302 300 301 300 301 301 302 302 301 302
268 271 273 277 277 275 275 276 280 285 286 286 286 290 294 290 289 290 296 299 301 303 304 305 308 310 310 312 312 307 307 306 303 301 300 301 300 300 300 301 301 301 300
267 268 269 272 271 271 273 272 274 279 284 284 283 284 285 290 290 290 291 292 291 293 297 300 303 305 306 309 311 307 304 304 303 301 301 300 300 299 298 298 298 299 298
265 264 264 267 269 270 270 270 272 276 279 282 283 287 287 291 291 292 293 289 285 285 289 292 295 299 302 306 308 308 305 302 303 302 301 301 300 299 298 298 297 297 296
265 263 261 267 268 267 266 269 272 275 277 280 284 284 285 286 288 290 291 291 293 285 284 290 293 299 300 302 303 304 305 303 304 303 301 301 301 302 301 300 300 299 297
263 263 262 266 266 266 266 268 270 273 275 277 280 282 281 281 283 285 290 291 291 288 285 292 296 298 301 302 305 305 306 305 303 304 304 304 303 302 301 300 299 299 298
259 263 266 267 265 266 266 267 271 272 274 275 276 276 277 280 282 283 286 289 289 290 288 291 293 297 301 303 305 304 303 304 304 303 303 305 304 302 302 301 300 300 300
263 263 264 265 265 266 267 267 270 271 273 274 274 275 277 278 280 282 282 282 283 285 286 288 289 293 297 298 300 299 298 299 300 300 301 301 301 301 300 301 300 299 299
262 264 266 266 266 268 269 271 271 272 272 272 273 274 275 277 278 279 278 277 279 280 282 284 287 289 290 291 295 295 294 294 295 296 297 298 298 298 299 299 298 297 298
262 264 266 267 267 267 269 272 273 274 274 274 274 273 274 275 277 276 276 277 279 280 281 283 285 287 288 289 290 291 292 291 291 292 294 295 296 297 297 296 296 296 296
262 264 265 267 269 269 269 270 272 274 276 276 275 274 272 272 273 274 276 278 279 280 281 282 283 285 288 287 286 287 290 291 291 292 293 294 296 297 297 295 294 294 294
262 265 265 267 268 269 269 270 271 273 274 275 275 274 273 272 271 273 274 275 276 278 279 281 282 284 286 286 285 286 288 291 293 293 293 294 296 296 296 296 293 292 293
263 265 266 267 268 268 268 270 272 273 274 274 274 274 273 272 270 271 273 274 275 276 277 279 281 282 283 283 284 285 288 290 292 292 293 294 296 296 296 296 295 293 293
265 265 266 267 269 269 270 271 271 273 274 273 273 273 272 273 271 272 273 273 274 275 276 277 279 280 281 281 283 284 286 288 290 292 293 294 295 296 296 296 295 293 293
265 266 267 267 268 269 270 271 272 273 274 273 272 272 272 272 271 270 271 272 272 274 275 276 277 277 279 280 281 282 283 285 287 289 291 293 294 295 295 294 294 294 294
264 265 266 267 268 269 270 272 273 273 274 273 273 273 272 271 270 269 270 270 271 273 273 273 275 276 278 279 280 281 281 283 285 287 289 291 291 292 293 293 293 292 292
Height
5906 5905 5903 5901 5900 5898 5897 5895 5894 5894 5893 5892 5891 5891 5890 5890 5890 5890 5890 5890 5890 5891 5891 5892 5892 5892 5892 5892 5892 5892 5892 5892 5891 5892 5892 5892 5891 5891 5891 5891 5891 5891 5891
5908 5907 5905 5903 5901 5900 5899 5897 5896 5895 5894 5894 5893 5892 5892 5891 5891 5891 5891 5891 5891 5891 5891 5892 5892 5892 5892 5892 5892 5892 5892 5891 5891 5891 5891 5891 5891 5890 5890 5890 5890 5889 5889
5910 5908 5907 5905 5903 5902 5900 5899 5898 5897 5896 5895 5895 5894 5893 5893 5893 5892 5892 5892 5892 5892 5892 5892 5892 5892 5892 5891 5891 5891 5891 5891 5890 5890 5890 5889 5890 5889 5889 5888 5888 5888 5887
5911 5909 5908 5907 5905 5903 5902 5900 5899 5898 5898 5897 5896 5896 5895 5895 5894 5894 5893 5893 5893 5893 5892 5892 5892 5891 5891 5891 5891 5890 5890 5890 5889 5889 5889 5888 5888 5888 5887 5887 5886 5885 5885
5911 5910 5909 5908 5906 5905 5903 5902 5901 5900 5899 5899 5898 5897 5897 5896 5896 5895 5895 5894 5894 5893 5893 5892 5892 5891 5891 5890 5890 5889 5889 5888 5888 5888 5887 5887 5886 5886 5885 5884 5884 5883 5882
5912 5910 5909 5908 5907 5906 5905 5903 5902 5901 5900 5900 5899 5898 5898 5897 5897 5896 5896 5895 5895 5894 5893 5893 5892 5891 5891 5890 5889 5888 5888 5887 5887 5886 5886 5885 5884 5883 5883 5882 5881 5880 5879
5911 5910 5909 5908 5907 5906 5905 5904 5902 5902 5901 5901 5900 5899 5899 5898 5898 5897 5896 5896 5895 5895 5894 5893 5892 5891 5891 5890 5889 5888 5887 5886 5885 5884 5884 5883 5882 5882 5881 5880 5879 5877 5877
5911 5910 5909 5908 5907 5906 5905 5904 5903 5902 5901 5901 5900 5900 5900 5899 5898 5897 5897 5896 5896 5895 5894 5893 5892 5891 5890 5889 5888 5887 5886 5885 5884 5883 5882 5881 5880 5879 5878 5877 5876 5875 5874
5910 5909 5908 5907 5906 5906 5905 5904 5903 5902 5902 5901 5900 5900 5899 5899 5898 5897 5897 5896 5896 5895 5894 5893 5892 5891 5890 5889 5887 5886 5884 5883 5882 5881 5880 5879 5878 5877 5875 5874 5873 5872 5870
5908 5907 5907 5906 5905 5905 5904 5904 5903 5902 5902 5901 5900 5899 5899 5898 5898 5897 5897 5896 5895 5894 5893 5892 5891 5890 5889 5887 5886 5884 5883 5881 5880 5879 5878 5877 5875 5874 5873 5871 5869 5868 5866
5905 5905 5905 5904 5904 5903 5903 5902 5902 5901 5900 5900 5899 5898 5897 5897 5897 5896 5895 5895 5894 5893 5892 5891 5890 5888 5887 5885 5884 5882 5880 5879 5878 5876 5875 5874 5872 5871 5869 5868 5866 5864 5862
5902 5902 5902 5902 5902 5901 5901 5900 5900 5899 5899 5898 5897 5897 5896 5895 5895 5894 5894 5893 5892 5891 5890 5889 5887 5886 5884 5883 5881 5879 5878 5877 5875 5873 5872 5870 5869 5867 5865 5864 5862 5860 5858
5899 5899 5899 5899 5899 5899 5898 5898 5898 5897 5896 5896 5895 5894 5893 5893 5892 5892 5891 5890 5889 5888 5887 5886 5885 5883 5882 5880 5878 5877 5875 5873 5872 5870 5868 5866 5865 5863 5861 5859 5857 5855 5853
5896 5896 5896 5896 5896 5896 5895 5895 5895 5894 5894 5893 5892 5891 5891 5890 5889 5888 5887 5886 5886 5885 5884 5883 5881 5880 5878 5877 5875 5873 5872 5870 5868 5866 5864 5862 5860 5858 5856 5854 5852 5850 5847
5892 5892 5892 5892 5892 5892 5891 5891 5891 5891 5891 5890 5889 5888 5888 5887 5886 5884 5883 5882 5881 5880 5880 5879 5878 5876 5874 5873 5871 5869 5867 5866 5864 5862 5859 5857 5855 5853 5850 5848 5846 5844 5841
5887 5887 5887 5887 5887 5887 5887 5887 5887 5887 5886 5886 5885 5884 5883 5883 5881 5880 5879 5878 5877 5875 5875 5874 5873 5871 5870 5868 5867 5865 5863 5861 5859 5857 5854 5852 5850 5847 5845 5842 5840 5838 5835
5882 5882 5882 5883 5882 5882 5882 5882 5882 5882 5881 5881 5880 5879 5878 5878 5877 5876 5874 5873 5872 5871 5870 5869 5867 5866 5865 5864 5862 5860 5858 5856 5854 5852 5849 5847 5844 5841 5839 5836 5834 5831 5828
5877 5877 5877 5877 5877 5877 5877 5876 5876 5876 5875 5875 5874 5873 5873 5872 5871 5870 5869 5867 5866 5865 5864 5863 5862 5861 5860 5858 5857 5855 5852 5851 5848 5846 5843 5841 5838 5835 5832 5830 5827 5825 5822
5871 5871 5871 5871 5871 5870 5870 5870 5869 5869 5868 5867 5867 5866 5866 5865 5864 5864 5862 5861 5860 5859 5858 5857 5856 5855 5853 5852 5850 5848 5846 5844 5842 5839 5836 5834 5831 5828 5825 5823 5820 5818 5815
5864 5864 5864 5864 5864 5863 5863 5862 5862 5861 5860 5860 5859 5858 5858 5857 5856 5856 5855 5854 5853 5852 5851 5850 5849 5847 5846 5845 5843 5840 5838 5836 5834 5832 5829 5826 5823 5820 5817 5815 5812 5810 5807
5857 5857 5856 5856 5856 5856 5855 5855 5854 5853 5853 5852 5851 5850 5849 5848 5848 5847 5847 5846 5845 5844 5843 5842 5841 5839 5838 5836 5835 5832 5830 5828 5825 5823 5821 5818 5815 5811 5809 5806 5804 5801 5799
5848 5848 5848 5848 5848 5847 5847 5846 5846 5845 5844 5843 5842 5841 5840 5839 5839 5838 5838 5837 5837 5836 5834 5833 5832 5830 5829 5827 5826 5824 5822 5819 5817 5814 5812 5809 5806 5802 5800 5797 5795 5793 5790
5839 5839 5838 5838 5838 5837 5837 5837 5837 5836 5835 5833 5832 5831 5831 5830 5829 5829 5828 5827 5827 5826 5825 5824 5823 5821 5820 5818 5817 5815 5813 5810 5808 5805 5803 5800 5797 5794 5791 5788 5785 5783 5781
5829 5828 5828 5828 5828 5827 5827 5826 5826 5825 5824 5823 5822 5821 5820 5820 5819 5818 5818 5817 5817 5816 5815 5814 5812 5811 5810 5809 5807 5805 5803 5801 5799 5797 5794 5791 5788 5785 5782 5779 5776 5773 5771
5818 5818 5817 5817 5817 5816 5816 5815 5815 5814 5813 5812 5811 5810 5809 5809 5808 5808 5807 5807 5806 5806 5805 5804 5803 5801 5800 5799 5797 5795 5794 5791 5789 5787 5784 5782 5779 5776 5773 5769 5767 5764 5761
5807 5807 5806 5806 5805 5805 5804 5804 5803 5802 5802 5801 5800 5799 5798 5798 5797 5797 5797 5796 5796 5795 5794 5793 5793 5792 5790 5788 5787 5785 5783 5781 5779 5777 5774 5771 5769 5766 5763 5760 5757 5754 5751